Location: ???????
(55.3754°N, 39.3545°E)
Time: 11:50:04
(UTC+00:00)

Okean O Rocket - Pass Details

Date: 14 April 2026
Orbit: 612 x 635 km, 98.0° (Epoch: 10 May)

Event Time Altitude Azimuth Distance (km) Brightness Sun altitude
Exits shadow 18:25:06 13° 185° (S) 1,834 3.6 -15.2°
Maximum altitude 18:28:55 51° 260° (W) 794 2.3 -15.6°
Drops below altitude 10° 18:33:10 10° 336° (NNW) 2,003 5.3 -16.0°
Sets 18:35:25 0° 342° (NNW) 2,910 6.2 -16.2°
